Wind_Speed
26 26 26 27 28 29 28 27 25 24 24 24 24 24 23 22 22 21 21 21 20 20 20 20 20 20 20 20 20 20 20 21 20 19 19 19 18 17 17 16 16 15 14 14 13 12 11 11 10
26 27 28 28 29 30 29 28 27 26 26 26 26 25 25 25 24 23 23 23 22 22 22 22 22 22 22 22 22 22 22 22 22 22 21 20 19 19 18 18 17 16 16 15 15 14 13 13 12
27 27 29 29 30 31 30 29 29 29 29 28 28 27 28 27 26 26 26 26 24 24 24 24 24 24 24 24 24 24 24 23 23 23 23 22 21 20 20 19 19 18 18 17 16 16 15 15 14
27 28 29 30 31 31 32 31 31 32 31 31 31 30 30 30 29 29 28 28 27 26 26 26 26 26 26 26 26 26 26 25 25 25 24 24 23 22 22 21 21 20 20 19 18 18 18 17 16
28 29 30 31 31 31 32 32 33 34 34 33 33 33 32 32 32 32 31 30 29 28 27 27 27 28 28 29 29 29 29 28 27 26 26 25 25 25 24 24 23 22 22 22 21 20 20 20 19
29 30 31 31 30 30 31 32 33 34 35 35 35 35 34 35 34 34 33 33 32 31 30 29 29 30 30 31 31 31 31 30 29 29 28 27 27 27 26 26 25 25 24 24 23 23 22 21 21
30 31 32 32 30 30 31 32 33 34 35 35 36 36 36 37 37 37 36 35 34 33 32 32 32 32 32 33 33 32 32 32 32 31 31 30 30 29 29 28 28 27 27 27 26 25 24 23 23
31 33 33 32 32 32 33 33 34 35 36 36 37 38 38 38 39 39 39 38 37 36 36 35 35 35 34 34 34 33 34 34 34 34 33 33 32 32 31 30 30 29 29 29 29 28 27 26 25
32 33 33 33 32 33 34 35 35 37 37 37 38 39 39 40 41 41 41 40 39 39 39 38 38 37 37 36 35 35 35 36 36 36 35 35 35 34 33 32 32 31 31 31 30 30 29 28 27
33 35 34 34 33 34 35 36 35 36 38 38 39 40 40 40 41 42 43 42 41 41 41 41 40 39 38 38 37 37 37 37 37 37 37 36 36 36 36 35 34 34 34 33 33 33 32 31 30
34 34 34 33 34 34 35 36 37 37 38 39 40 41 41 41 41 42 42 42 41 41 41 41 40 40 39 39 38 38 38 38 38 38 38 38 38 37 37 37 36 36 36 36 35 35 35 34 33
33 33 33 32 33 34 35 35 35 36 37 39 40 41 41 41 41 41 40 40 41 40 40 41 40 40 40 39 39 39 40 39 40 40 40 40 40 39 39 39 38 37 37 37 37 38 37 37 36
32 33 33 33 33 33 34 34 34 34 35 37 38 39 40 40 41 40 40 41 41 40 39 39 40 40 40 39 39 41 41 41 41 41 41 41 41 41 41 41 41 40 39 39 39 38 39 39 39
31 32 33 33 33 32 32 33 34 34 35 36 36 37 39 40 41 40 40 41 41 41 40 40 40 40 39 39 40 41 42 42 42 42 42 42 43 43 43 43 43 42 42 41 40 39 40 40 40
30 31 31 32 32 32 32 33 33 34 35 36 36 36 38 39 40 41 40 41 42 42 42 41 41 41 40 40 41 42 42 43 43 43 43 43 44 44 44 44 44 44 44 43 43 42 41 42 42
30 30 31 32 32 32 32 32 32 34 35 36 37 37 37 38 39 40 40 39 40 41 42 42 42 42 42 42 42 42 42 43 44 44 44 44 45 45 44 45 45 45 45 45 44 44 43 43 43
29 30 31 32 32 32 33 32 32 33 34 36 37 37 37 38 39 40 40 40 40 40 41 42 43 43 43 43 44 44 44 43 45 45 45 45 46 46 46 45 46 46 46 46 46 45 44 44 44
29 30 30 32 32 33 33 32 32 33 34 35 37 37 37 38 38 40 41 41 41 41 41 42 42 42 44 45 45 46 45 45 45 46 46 46 47 48 48 48 48 48 48 48 47 46 44 44 44
29 30 31 32 33 33 33 33 32 33 34 35 36 36 36 37 38 39 40 40 41 42 42 43 42 43 44 45 45 46 46 46 46 47 48 48 48 48 47 48 48 49 49 48 48 47 45 44 44
29 30 31 32 33 33 33 32 33 33 34 34 35 35 35 36 37 37 38 40 41 42 42 43 43 43 44 45 45 45 45 44 46 48 48 49 49 48 48 48 48 49 49 48 48 47 46 46 46
28 29 30 31 31 33 34 32 31 33 33 34 35 36 36 37 37 37 38 39 39 40 41 42 43 44 44 45 45 45 45 45 45 46 47 48 48 49 50 49 49 49 49 48 48 48 48 46 46
26 27 28 29 30 30 32 33 30 32 32 33 35 35 36 36 37 37 37 37 38 38 39 41 42 43 44 44 45 45 45 45 46 45 45 46 47 48 48 48 49 49 49 49 49 49 48 47 47
24 26 27 28 29 29 28 31 30 30 31 32 34 34 34 35 35 35 36 35 36 37 39 40 42 42 43 44 44 43 44 45 46 46 46 46 47 46 46 46 47 48 49 49 49 49 48 48 48
24 25 27 28 29 28 27 29 30 29 30 32 33 33 33 34 34 34 35 35 35 35 37 38 40 41 43 44 45 45 44 45 45 44 44 45 45 45 46 46 46 48 48 48 48 49 48 49 48
24 24 26 27 28 28 27 28 29 29 30 30 31 32 32 32 32 32 32 33 33 34 35 37 39 40 41 43 45 45 45 44 44 43 43 44 44 44 44 45 46 46 47 47 47 48 48 49 47
21 23 24 26 27 27 25 26 27 27 28 28 29 30 30 29 29 29 30 30 31 31 32 34 36 38 38 39 42 42 43 43 44 44 43 43 44 44 45 45 45 46 47 48 47 47 48 48 47
21 22 24 25 26 25 24 24 24 24 25 26 27 28 28 28 27 27 28 29 29 29 30 32 34 35 35 37 39 40 40 41 43 44 43 42 43 43 44 45 45 45 47 47 46 45 46 46 46
22 22 23 24 26 26 25 25 25 24 25 26 27 28 28 27 27 27 27 28 28 28 28 29 31 32 34 36 37 37 38 39 41 43 43 43 44 45 44 44 44 44 46 46 47 45 45 45 45
23 23 24 25 25 25 24 23 24 25 26 26 26 26 26 26 26 26 27 28 27 27 27 29 31 31 32 33 34 35 35 36 39 40 41 42 42 43 43 44 43 43 44 45 45 46 45 44 44
24 24 24 24 24 25 25 24 24 25 26 25 24 24 25 24 24 24 25 26 25 25 26 27 29 30 31 32 32 34 34 34 35 37 38 40 40 41 42 43 43 42 42 42 43 43 43 43 44
Wind_Direction
249 249 249 248 248 247 248 250 251 250 251 253 254 256 257 258 259 259 261 262 263 264 263 261 261 261 260 259 257 257 255 253 251 249 249 249 249 250 249 249 249 249 250 251 253 253 251 252 253
249 249 249 248 248 248 248 250 250 251 250 251 252 255 256 257 259 260 261 262 262 263 262 261 260 261 261 260 258 256 255 254 252 250 249 248 248 249 250 248 248 249 250 251 253 255 255 253 254
249 250 250 249 249 251 252 252 252 252 251 251 252 254 256 257 258 260 260 261 261 262 263 261 260 260 260 260 258 256 254 253 252 251 249 247 247 248 248 248 248 248 250 252 253 256 257 255 256
252 250 250 251 251 252 254 255 254 253 254 253 253 254 256 258 258 258 259 260 261 262 262 262 261 260 261 261 258 254 254 253 252 251 250 248 247 248 249 249 250 250 251 252 254 255 257 257 257
252 252 253 254 253 253 255 256 255 255 255 256 255 255 256 257 257 258 258 259 260 261 261 262 261 262 261 261 259 255 253 253 252 250 250 249 247 247 249 250 250 252 253 252 254 255 257 257 258
253 254 255 257 257 255 256 256 255 256 256 256 256 256 256 257 257 257 258 258 258 260 261 261 261 262 262 261 258 255 253 252 252 250 250 249 248 248 249 250 251 252 254 254 254 256 257 258 258
255 256 258 259 257 256 256 255 256 257 257 257 257 257 257 257 257 258 257 258 259 260 261 262 263 263 263 263 258 253 252 251 251 251 250 249 249 249 249 250 252 252 253 255 254 255 257 259 259
257 258 259 259 258 258 257 257 257 257 258 258 259 258 258 257 257 257 257 258 259 260 262 263 263 263 263 261 257 253 251 250 251 251 250 250 250 250 250 250 252 253 254 254 255 255 256 258 260
259 259 258 259 261 260 259 260 260 260 259 258 259 260 260 259 258 258 258 259 260 261 262 263 263 263 262 259 256 253 251 250 250 250 250 250 250 251 251 251 252 253 254 255 256 256 256 257 260
260 259 259 260 262 263 262 261 262 261 260 259 259 260 260 261 260 260 260 260 261 261 262 264 263 263 261 258 253 252 251 250 250 250 250 250 249 250 251 252 252 253 254 255 257 257 257 258 260
261 260 260 261 261 263 263 262 262 262 260 260 260 260 261 262 262 263 262 261 262 263 264 263 262 261 259 256 252 251 251 250 250 250 250 250 249 250 251 251 253 253 254 254 256 258 259 259 259
262 260 260 262 263 264 264 263 263 263 264 262 261 261 261 262 263 264 263 262 262 263 264 263 261 259 257 254 251 251 250 250 251 251 251 250 250 250 251 252 253 254 254 255 256 257 259 260 260
262 261 261 262 266 266 264 264 264 265 267 266 264 263 262 263 263 264 265 264 263 263 263 261 260 259 255 252 251 250 250 251 253 253 253 252 251 252 252 252 253 253 254 255 256 258 260 261 261
264 262 261 262 266 266 266 265 265 266 268 268 267 265 264 263 263 264 265 265 264 262 261 259 258 257 254 252 251 251 250 251 252 252 252 253 252 252 253 253 254 254 254 255 256 258 260 261 261
265 263 262 264 267 267 269 268 267 268 268 269 268 268 267 266 265 265 266 266 265 263 260 258 256 254 253 252 253 252 252 251 250 251 253 253 253 253 253 253 254 255 256 256 256 257 259 261 262
265 264 265 265 267 268 270 272 271 270 270 270 271 271 271 270 269 267 266 267 267 264 260 256 253 252 252 251 252 253 255 253 251 251 253 253 253 253 253 253 255 256 257 257 257 257 258 262 262
267 267 269 269 268 269 270 273 273 272 272 273 273 273 273 273 272 269 268 267 267 263 259 255 253 252 252 252 253 253 254 255 253 252 253 253 253 253 253 254 255 256 257 258 258 257 259 262 262
271 271 272 272 272 270 271 272 274 274 275 275 275 275 274 274 273 271 269 268 266 264 260 255 253 253 253 253 253 254 255 255 254 253 254 254 255 255 255 255 255 255 257 258 258 258 260 261 262
273 273 272 272 272 272 273 274 275 276 277 277 276 275 276 275 275 272 270 269 267 265 262 257 254 254 254 253 255 256 256 256 254 254 254 254 255 255 255 256 256 256 257 258 258 258 259 260 261
276 275 274 274 272 273 273 274 276 277 278 279 278 278 279 278 276 273 272 269 267 265 262 257 255 255 254 255 256 257 257 258 255 255 255 255 255 255 256 258 257 257 257 258 258 258 258 259 260
277 277 276 275 274 273 274 273 275 277 278 279 280 280 281 281 278 275 275 273 269 266 262 258 256 256 257 256 256 257 257 258 257 256 255 256 256 258 257 257 257 257 257 258 258 258 257 260 261
281 280 278 276 276 275 274 275 274 278 280 281 281 282 282 281 280 277 277 275 270 267 263 259 258 257 256 256 257 257 258 257 257 257 258 257 256 257 257 258 257 257 257 258 258 257 257 260 260
284 283 281 279 279 279 278 278 277 281 282 283 283 283 283 281 280 278 277 276 272 270 266 263 260 258 257 257 258 258 257 257 258 258 258 257 255 256 258 258 256 256 257 258 258 258 257 259 260
286 286 285 283 282 281 281 280 279 282 284 284 284 284 283 281 280 278 277 277 274 271 268 265 260 259 258 258 257 258 257 257 258 259 258 256 255 255 255 258 257 257 257 258 258 258 257 258 260
288 289 290 288 286 286 284 283 284 284 285 285 286 286 284 282 282 281 281 278 275 272 269 267 263 262 261 259 257 257 257 256 256 257 257 256 256 256 256 257 258 257 257 258 257 258 257 257 259
291 292 293 293 292 292 290 286 288 288 287 286 288 288 287 285 283 283 282 281 277 272 270 268 265 264 262 261 258 258 257 255 254 255 256 257 257 257 257 257 258 258 258 258 257 257 257 257 258
294 296 296 295 295 294 294 290 289 290 289 287 287 288 288 287 284 284 284 282 278 275 273 271 269 266 263 262 262 261 259 256 254 254 256 258 257 257 257 258 259 259 259 257 257 257 257 257 258
292 296 295 293 293 291 290 289 288 287 287 288 289 289 288 287 285 286 286 284 281 278 276 273 271 268 265 264 263 263 260 257 255 255 256 257 258 259 259 259 260 260 258 257 258 258 257 257 257
291 294 293 291 290 290 290 289 288 289 290 292 294 293 292 290 289 289 289 287 284 281 278 274 269 267 268 265 264 262 261 258 258 256 256 258 258 258 258 257 259 260 258 258 258 257 255 256 257
289 291 292 291 290 289 289 292 291 290 292 292 292 294 295 293 290 291 290 287 285 284 281 278 273 270 269 266 265 263 262 262 260 257 257 259 258 258 258 258 259 259 258 258 257 257 255 256 258
Height
5805 5807 5808 5810 5811 5812 5813 5817 5820 5822 5824 5825 5826 5828 5829 5829 5831 5833 5833 5833 5834 5835 5836 5837 5838 5839 5839 5840 5841 5842 5843 5844 5844 5845 5846 5847 5848 5849 5850 5850 5851 5852 5852 5853 5853 5853 5854 5854 5855
5800 5801 5803 5804 5805 5806 5809 5812 5814 5816 5819 5820 5821 5823 5824 5824 5826 5826 5827 5828 5829 5831 5832 5832 5833 5834 5835 5836 5837 5838 5839 5840 5841 5842 5843 5844 5845 5846 5846 5847 5848 5849 5849 5850 5851 5851 5851 5852 5852
5794 5795 5797 5798 5799 5801 5804 5806 5809 5810 5812 5814 5816 5817 5818 5819 5821 5821 5822 5823 5824 5826 5827 5827 5828 5829 5830 5831 5832 5833 5834 5836 5837 5838 5839 5840 5841 5842 5843 5844 5845 5846 5846 5847 5848 5848 5849 5849 5849
5789 5790 5791 5793 5795 5797 5798 5801 5802 5803 5805 5807 5809 5811 5812 5813 5815 5815 5816 5817 5819 5820 5821 5822 5823 5824 5824 5825 5827 5828 5829 5831 5832 5833 5834 5835 5836 5838 5839 5840 5841 5842 5843 5844 5844 5845 5845 5846 5846
5783 5784 5785 5787 5789 5791 5792 5794 5795 5797 5799 5800 5802 5803 5805 5806 5807 5808 5810 5811 5813 5814 5815 5816 5817 5817 5818 5819 5820 5822 5823 5825 5826 5828 5829 5830 5832 5833 5834 5836 5837 5838 5838 5839 5840 5841 5841 5842 5843
5777 5778 5779 5780 5783 5784 5786 5787 5788 5789 5791 5793 5794 5796 5797 5798 5800 5801 5803 5803 5805 5807 5808 5809 5810 5810 5811 5812 5813 5815 5817 5819 5820 5822 5823 5825 5826 5827 5829 5830 5832 5833 5834 5835 5836 5837 5837 5838 5839
5771 5772 5773 5774 5775 5777 5779 5780 5780 5782 5783 5785 5786 5788 5789 5790 5791 5793 5794 5796 5798 5799 5801 5802 5802 5803 5804 5805 5806 5808 5810 5812 5814 5815 5817 5819 5820 5822 5823 5825 5826 5827 5829 5830 5831 5832 5832 5833 5834
5764 5765 5766 5767 5768 5770 5772 5772 5773 5774 5776 5778 5778 5779 5780 5782 5783 5784 5786 5788 5790 5791 5792 5793 5794 5795 5796 5797 5798 5800 5802 5805 5807 5808 5810 5812 5813 5815 5817 5818 5820 5821 5823 5824 5825 5826 5827 5828 5829
5757 5758 5759 5760 5761 5763 5764 5765 5766 5766 5768 5769 5770 5771 5772 5773 5774 5775 5777 5779 5780 5782 5783 5784 5785 5786 5787 5788 5790 5792 5794 5797 5799 5801 5803 5804 5806 5808 5810 5811 5813 5815 5816 5817 5818 5820 5821 5822 5823
5749 5750 5752 5753 5753 5754 5755 5756 5757 5758 5759 5760 5761 5761 5762 5763 5764 5765 5767 5769 5771 5772 5773 5774 5775 5776 5777 5779 5781 5784 5786 5788 5791 5792 5794 5796 5798 5800 5802 5804 5806 5807 5809 5811 5812 5813 5814 5815 5816
5742 5743 5745 5745 5745 5745 5746 5747 5748 5749 5750 5751 5752 5752 5753 5754 5755 5755 5756 5758 5759 5761 5762 5763 5764 5765 5767 5769 5772 5775 5777 5779 5782 5784 5786 5788 5790 5792 5794 5796 5798 5800 5801 5803 5804 5805 5807 5808 5809
5734 5736 5736 5737 5737 5737 5738 5739 5740 5741 5741 5741 5741 5742 5743 5744 5745 5746 5746 5747 5749 5750 5751 5752 5753 5754 5756 5759 5762 5765 5768 5770 5772 5774 5776 5778 5781 5783 5785 5787 5789 5791 5793 5795 5796 5798 5799 5800 5801
5727 5728 5728 5729 5729 5730 5730 5731 5732 5732 5731 5731 5731 5732 5732 5734 5735 5736 5736 5737 5738 5740 5741 5742 5743 5744 5746 5749 5752 5755 5758 5760 5762 5764 5766 5768 5771 5773 5776 5778 5780 5782 5783 5785 5788 5789 5790 5791 5792
5720 5720 5720 5721 5721 5722 5722 5723 5724 5725 5723 5722 5722 5723 5723 5723 5725 5726 5727 5727 5728 5729 5730 5731 5733 5735 5737 5739 5742 5744 5746 5749 5752 5753 5755 5758 5760 5763 5765 5768 5769 5771 5773 5775 5777 5779 5780 5782 5782
5712 5712 5713 5714 5713 5714 5714 5715 5716 5715 5714 5713 5714 5714 5714 5714 5715 5716 5716 5717 5717 5718 5719 5721 5722 5725 5727 5730 5732 5734 5736 5738 5741 5743 5745 5747 5750 5752 5754 5757 5759 5761 5762 5765 5767 5769 5769 5770 5772
5704 5705 5706 5707 5706 5706 5707 5707 5708 5706 5705 5705 5705 5705 5705 5705 5704 5705 5706 5707 5706 5707 5708 5710 5712 5714 5717 5720 5722 5724 5725 5728 5730 5732 5734 5736 5739 5741 5744 5746 5748 5750 5751 5753 5755 5757 5758 5760 5761
5697 5697 5698 5699 5698 5698 5698 5699 5699 5697 5697 5696 5696 5696 5695 5695 5695 5696 5696 5696 5696 5696 5698 5699 5702 5704 5706 5709 5711 5714 5715 5717 5719 5721 5723 5725 5727 5730 5732 5734 5736 5738 5740 5742 5743 5745 5747 5748 5749
5690 5690 5690 5690 5690 5690 5690 5690 5690 5689 5688 5688 5687 5687 5686 5686 5686 5686 5686 5686 5686 5686 5687 5689 5691 5693 5695 5698 5700 5703 5704 5706 5708 5710 5712 5714 5716 5718 5720 5722 5724 5726 5728 5730 5731 5733 5736 5737 5737
5683 5683 5683 5683 5682 5681 5682 5682 5682 5680 5680 5679 5679 5678 5677 5677 5677 5676 5676 5676 5676 5676 5677 5679 5681 5683 5684 5687 5689 5691 5693 5694 5696 5698 5701 5703 5704 5706 5708 5710 5712 5714 5716 5718 5720 5722 5724 5725 5726
5675 5675 5675 5675 5674 5673 5673 5674 5674 5672 5672 5671 5670 5670 5669 5668 5667 5667 5666 5666 5666 5666 5667 5669 5671 5672 5674 5676 5678 5679 5680 5682 5685 5687 5689 5691 5692 5694 5696 5698 5700 5702 5705 5707 5708 5710 5713 5714 5715
5668 5668 5668 5667 5667 5665 5665 5666 5666 5665 5664 5663 5662 5662 5661 5660 5659 5658 5657 5657 5656 5656 5657 5658 5660 5662 5663 5664 5666 5667 5669 5671 5673 5676 5678 5679 5680 5682 5684 5686 5688 5690 5693 5695 5698 5699 5701 5703 5704
5662 5661 5660 5659 5658 5658 5658 5656 5659 5657 5656 5656 5655 5653 5653 5651 5650 5649 5648 5647 5647 5647 5647 5648 5649 5651 5652 5653 5655 5657 5658 5661 5663 5664 5666 5668 5669 5671 5672 5674 5676 5679 5682 5684 5686 5688 5690 5691 5693
5655 5654 5653 5652 5651 5651 5650 5648 5651 5649 5649 5648 5646 5645 5644 5642 5641 5639 5638 5638 5637 5637 5637 5637 5637 5639 5640 5641 5643 5645 5647 5649 5651 5653 5655 5657 5659 5660 5661 5663 5665 5667 5670 5673 5674 5676 5679 5680 5682
5649 5649 5647 5645 5643 5644 5644 5642 5643 5642 5640 5639 5638 5636 5634 5633 5631 5630 5629 5628 5627 5627 5626 5626 5626 5627 5628 5629 5631 5633 5635 5637 5640 5642 5644 5646 5648 5649 5651 5652 5654 5656 5659 5661 5663 5664 5667 5669 5670
5644 5643 5641 5638 5637 5637 5637 5635 5636 5635 5633 5631 5630 5628 5626 5624 5623 5622 5621 5619 5618 5618 5617 5616 5615 5616 5617 5618 5619 5621 5623 5625 5628 5630 5632 5635 5637 5638 5640 5642 5644 5645 5647 5649 5651 5652 5655 5657 5659
5638 5637 5635 5633 5631 5630 5630 5628 5630 5628 5625 5624 5622 5620 5618 5617 5615 5613 5612 5610 5609 5609 5608 5607 5606 5606 5606 5607 5609 5609 5611 5613 5616 5619 5621 5624 5626 5627 5630 5632 5633 5634 5636 5638 5640 5641 5643 5645 5647
5633 5631 5629 5627 5625 5624 5623 5622 5622 5621 5619 5617 5615 5613 5611 5609 5607 5606 5604 5603 5601 5600 5600 5599 5598 5597 5597 5598 5599 5600 5600 5602 5605 5608 5611 5613 5615 5616 5618 5620 5622 5624 5625 5627 5629 5630 5632 5634 5636
5628 5626 5624 5621 5619 5617 5618 5617 5616 5614 5612 5610 5608 5606 5604 5602 5600 5599 5597 5595 5594 5593 5592 5591 5589 5589 5589 5590 5590 5591 5591 5592 5594 5597 5600 5602 5603 5605 5607 5609 5611 5612 5614 5615 5617 5619 5621 5622 5624
5623 5621 5618 5616 5613 5612 5610 5613 5609 5607 5605 5603 5601 5599 5597 5595 5593 5591 5590 5588 5586 5585 5584 5583 5582 5582 5582 5582 5582 5582 5582 5583 5585 5587 5589 5590 5592 5594 5596 5598 5599 5601 5602 5604 5605 5607 5609 5611 5613
5616 5614 5612 5611 5608 5606 5604 5607 5603 5601 5599 5597 5595 5593 5591 5589 5587 5585 5583 5582 5580 5578 5577 5576 5575 5575 5574 5574 5574 5574 5574 5574 5575 5576 5578 5579 5581 5583 5585 5587 5588 5590 5591 5592 5594 5596 5598 5600 5602